sat.trackr.live / text

‹ back to catalog

STARLINK-36064

NORAD 66899 · 2025-283X

PAYLOAD ACTIVE UNKNOWN

§ Identity

Operator
Country
US
Launch date
2025-12-04
Launch site
AFWTR
Launch vehicle
Mass (kg)
RCS (m²)

Purposes: comms

External: N2YO · Heavens-Above · Gunter

§ Orbital elements

Epoch: 2026-09-20T07:06:01.933344Z

Period
93.85 min
Inclination
53.1573°
Eccentricity
0.0001367
Mean motion
15.34413661 rev/d
Perigee alt
461.7 km
Apogee alt
463.6 km
Semi-major
6,840.8 km
B*
8.0553e-4
RAAN
196.3843°
Arg perigee
72.1416°
Mean anomaly
287.9736°
Rev number
4,569

§ Raw data

STARLINK-360641 66899U 25283X   26263.29585571  .00026949  00000+0  80553-3 0  99922 66899  53.1573 196.3843 0001367  72.1416 287.9736 15.34413661 45696

JSON: /api/v1/satellites/66899 · /tle

For live sub-satellite position, see the globe view (requires WebGL).

§ Visibility from observer

Set your observer location to see the next 7 days of passes ≥ 10°. The values pass through the URL so the page stays shareable.

No JS? Fill the form by hand. The geolocation button needs JavaScript.